This demonstration page uses our WeatherBlox Daily Observations layout. Learn more.

Left ArrowRight Arrow

Hourly Observations for March 24, 2015

Temp ( °F °C ) Dew Point ( °F °C ) Humidity (%) Winds ( mph kmh ) Pressure ( in mb ) Visibility ( mi km ) Precip ( " mm )
12:51 am 00:51 Clear 58 14.4 24 -4.4 27 27 N 9 15 29.91 1013 10 16 0.00 0.00
1:51 am 01:51 Clear 52 11.1 25 -3.9 35 35 SSE 7 11 29.93 1013 10 16 0.00 0.00
2:51 am 02:51 Clear 48 8.9 26 -3.3 42 42 ENE 3 6 29.93 1014 10 16 0.00 0.00
3:51 am 03:51 Clear 50 10 27 -2.8 41 41 SSE 6 9 29.93 1014 10 16 0.00 0.00
4:51 am 04:51 Clear 46 7.8 27 -2.8 47 47 SE 6 9 29.94 1014 10 16 0.00 0.00
5:51 am 05:51 Clear 43 6.1 27 -2.8 53 53 Calm 29.96 1015 10 16 0.00 0.00
6:51 am 06:51 Sunny 45 7.2 28 -2.2 52 52 NE 3 6 29.99 1016 10 16 0.00 0.00
7:51 am 07:51 Sunny 54 12.2 29 -1.7 38 38 SE 3 6 30.00 1016 10 16 0.00 0.00
8:51 am 08:51 Sunny 64 17.8 27 -2.8 25 25 ESE 7 11 29.99 1016 10 16 0.00 0.00
9:51 am 09:51 Sunny 68 20 27 -2.8 21 21 SSE 7 11 29.97 1015 10 16 0.00 0.00
10:51 am 10:51 Sunny 71 21.7 27 -2.8 19 19 VRB 6 9 29.96 1015 10 16 0.00 0.00
11:51 am 11:51 Sunny 74 23.3 18 -7.8 12 12 Calm 29.94 1014 10 16 0.00 0.00
12:51 pm 12:51 Sunny 78 25.6 19 -7.2 11 11 NE 6 9 29.90 1013 10 16 0.00 0.00
1:51 pm 13:51 Sunny 78 25.6 20 -6.7 11 11 VRB 3 6 29.88 1012 10 16 0.00 0.00
2:51 pm 14:51 Sunny 79 26.1 19 -7.2 10 10 NW 7 11 29.85 1011 10 16 0.00 0.00
3:51 pm 15:51 Sunny 81 27.2 19 -7.2 10 10 VRB 3 6 29.81 1010 10 16 0.00 0.00
4:51 pm 16:51 Sunny 80 26.7 19 -7.2 10 10 VRB 5 7 29.81 1009 10 16 0.00 0.00
5:51 pm 17:51 Sunny 78 25.6 18 -7.8 10 10 WNW 8 13 29.82 1010 10 16 0.00 0.00
6:51 pm 18:51 Clear 73 22.8 15 -9.4 11 11 NW 14 22 29.82 1010 10 16 0.00 0.00
7:51 pm 19:51 Clear 69 20.6 14 -10 12 12 NW 13 20 29.83 1010 10 16 0.00 0.00
8:51 pm 20:51 Clear 67 19.4 19 -7.2 16 16 NW 12 19 29.84 1011 10 16 0.00 0.00
9:51 pm 21:51 Clear 62 16.7 19 -7.2 19 19 WNW 10 17 29.85 1011 10 16 0.00 0.00
10:51 pm 22:51 Clear 58 14.4 21 -6.1 24 24 WNW 6 9 29.86 1011 10 16 0.00 0.00
11:51 pm 23:51 Clear 56 13.3 20 -6.7 24 24 WNW 7 11 29.86 1011 10 16 0.00 0.00

Powered by AerisWeather